Location: Blue Springs
(32.1688°N, 83.4788°W)
Time: 02:15:57
(UTC+00:00)

Daily predictions for brighter satellites

Satellite Brightness Start Highest point End
(mag) Time Altitude Azimuth Time Altitude Azimuth Time Altitude Azimuth
ERS-2 4.5 00:00:53 10° NNW 00:03:48 23° WNW 00:06:44 10° SW
Orbus 7S 4.0 00:01:43 10° WSW 00:04:44 30° S 00:05:11 29° S
Cosmos 923 Rocket 3.9 00:01:34 10° S 00:06:42 70° ESE 00:09:09 31° NNE
H-2A R/B 3.6 00:02:48 10° SE 00:10:50 19° NNE 00:12:29 10° N
Cosmos 1461 4.0 00:06:03 10° S 00:09:10 31° SE 00:09:10 31° SE
CREW DRAGON DEMO-1 DEB 4.0 00:10:54 10° NW 00:12:54 38° WNW 00:12:54 38° WNW
Cosmos 44 4.0 00:10:54 10° NW 00:16:12 61° WSW 00:21:30 10° SSE
YAOGAN 1 4.3 00:14:06 10° SSE 00:22:49 - N 00:15:25 19° SSE
NOSS 3-2 (A) 3.3 00:18:23 10° SW 00:23:48 75° WNW 00:26:19 36° NNE
Cosmos 158 Rocket 3.9 00:19:53 10° SSW 00:24:55 79° WNW 00:26:32 43° N
Cosmos 2228 Rocket 3.7 00:25:38 10° SSW 00:30:06 57° W 00:32:19 28° NNW
BREEZE-M DEB (TANK) 3.8 00:28:38 10° W 00:31:24 26° NW 00:31:24 26° NW
Cosmos 2239 Rocket 4.3 00:27:23 10° N 00:33:33 74° E 00:39:45 10° SSE
Cosmos 1680 Rocket 3.4 00:29:22 10° SSW 00:34:36 84° WNW 00:35:23 65° N
Cosmos 1812 3.9 00:31:55 10° SSW 00:35:32 41° W 00:35:57 39° WNW
Gblst 52 Del rocket 4.2 00:32:09 10° SW 00:38:41 78° SE 00:39:03 75° E
USA 238 DEB 3.8 00:34:45 10° SW 00:41:12 67° WNW 00:43:44 39° N
USA 238 3.8 00:34:50 10° SW 00:41:18 68° WNW 00:43:47 40° N
Cosmos 2112 Rocket 4.4 00:49:07 10° SSW 00:53:57 62° W 00:53:57 62° W
Okean-O 4.1 00:52:30 10° SSW 00:56:31 34° W 01:00:34 10° NNW
USA 267 4.4 01:09:12 30° N 01:09:12 30° N 01:12:33 10° NNW
USA 281 3.8 01:08:18 10° S 01:14:38 52° WSW 01:21:01 10° NNW
Cosmos 2369 Rocket 4.1 01:32:23 10° NW 01:36:59 26° WSW 01:37:03 26° WSW
CENTAUR R/B 4.3 01:44:11 10° WSW 01:47:09 24° W 01:47:09 24° W
Milstar 3 Cent rocket 3.8 08:57:58 42° ESE 08:57:58 42° ESE 09:04:55 10° E
Lacrosse 5 4.4 09:29:47 13° NE 09:29:47 13° NE 09:30:21 10° NE
CENTAUR R/B 3.9 09:23:19 36° N 09:26:25 50° NE 09:34:58 10° SE
Atlas Centaur 2 2.9 09:34:28 58° SE 09:34:28 58° SE 09:39:35 10° E
ATLAS 2AS CENTAUR R/B 2.9 09:38:11 84° NW 09:38:11 84° NW 09:46:04 10° NNE
NOSS 3-2 (A) 4.0 09:51:01 63° NW 09:52:31 79° WSW 10:01:13 10° SSE
Lacrosse 4 Rocket 3.2 10:03:37 26° NNE 10:04:51 30° ENE 10:08:45 10° ESE
FENGYUN 3A 3.5 10:03:02 10° NNE 10:08:28 88° WNW 10:13:51 10° SSW
USA 238 DEB 3.8 10:08:23 53° WNW 10:10:07 69° WSW 10:17:39 10° SSE
USA 238 3.8 10:08:27 53° WNW 10:10:13 69° WSW 10:17:45 10° SSE
CZ-4B R/B 3.2 10:10:12 10° SE 10:12:25 29° E 10:12:25 29° E
Cosmos 1709 Rocket 3.9 10:09:58 10° SSW 10:16:15 63° W 10:22:35 10° N
Meteor 2-3 Rocket 3.6 10:10:47 10° S 10:16:29 85° W 10:22:17 10° N
ADEOS Rocket 4.0 10:12:04 10° SSW 10:15:29 30° SW 10:15:29 30° SW
Cosmos 1461 3.0 10:18:00 72° NNE 10:18:21 78° ENE 10:22:45 10° SSE
Cosmos 1603 3.5 10:18:19 51° NNW 10:19:48 80° WSW 10:25:26 10° SSE
Delta 2 Rocket 4.3 10:20:46 44° SSW 10:20:46 44° SSW 10:25:15 10° SE
Cosmos 2181 Rocket 4.3 10:16:40 10° N 10:22:48 66° E 10:28:50 10° SSE
Cosmos 1943 3.1 10:23:32 38° NNW 10:25:51 82° WSW 10:31:32 10° SSE
CZ-4C R/B 2.1 10:26:54 50° NW 10:26:54 50° NW 10:31:44 10° NNE
deb Chang Zheng 4 3.5 10:22:53 10° NNE 10:27:15 88° ESE 10:31:35 10° SSW
ATLAS 2A CENTAUR R/B 4.4 10:22:59 10° SSW 10:28:05 35° SE 10:45:40 10° E
BREEZE M DEB (TANK) 3.9 10:11:46 10° SW 10:30:19 87° NW 10:34:38 10° NE
H-2A R/B 4.1 10:26:48 10° SSW 10:27:30 14° SSW 10:27:30 14° SSW
Cosmos 990 Rocket 3.8 10:25:23 10° SSW 10:30:36 77° WNW 10:35:52 10° NNE
Meteor 1-31 Rocket 4.3 10:34:17 23° SSW 10:34:17 23° SSW 10:35:48 10° SSW
GPS 2-04 Rocket1 3.0 10:33:15 49° N 10:33:15 49° N 10:36:59 10° ENE
deb Centaur AC-2 4.4 10:32:47 44° WSW 10:34:21 71° S 10:39:01 10° E
ERS-2 2.1 10:32:43 10° SSE 10:36:21 79° ENE 10:37:36 39° N
OAO 3 Rocket 4.0 10:37:37 31° SW 10:38:19 32° SSW 10:42:30 10° SE
Cosmos 923 Rocket 4.2 10:35:15 13° N 10:40:03 71° ENE 10:45:21 10° SSE
Cosmos 1933 3.4 10:41:12 52° W 10:41:25 53° W 10:45:24 10° S
SKYMED 2 4.3 10:38:04 10° SSE 10:42:17 54° ENE 10:46:32 10° N
Cosmos 1782 3.2 10:39:26 10° N 10:43:27 65° E 10:47:25 10° SSE
Cosmos 1515 Rocket 4.3 10:40:49 10° N 10:45:11 54° E 10:49:32 10° SSE
Cosmos 2074 Rocket 4.0 10:40:12 10° S 10:46:23 83° E 10:52:37 10° N
Cosmos 1151 Rocket 2.9 10:44:42 26° NNW 10:47:00 63° W 10:51:14 10° S
ATLAS 3B R/B 3.8 10:40:32 10° NNW 10:47:08 42° NE 10:53:58 10° SE
METEOR-M 4.3 10:42:37 10° N 10:47:42 46° WNW 10:52:45 10° SW
ASTRO E2 3.5 10:49:23 31° SW 10:50:28 38° SSW 10:54:10 10° SE
SJ-12 3.8 10:47:58 10° N 10:51:58 59° WNW 10:55:56 10° SSW
RESURS DK-1 2.7 10:51:31 37° W 10:52:00 39° WNW 10:55:55 10° N
Cosmos 158 Rocket 3.8 10:50:04 13° NNW 10:54:29 84° WSW 10:59:31 10° SSE
CZ-2C R/B 3.5 10:52:38 10° S 10:54:41 16° SSE 10:56:42 10° ESE
Meteor PRIRODA 3.5 10:54:53 10° N 10:58:37 73° WNW 11:02:18 10° SSW
Cosmos 1500 Rocket 3.4 10:56:41 10° S 11:00:59 89° W 11:05:19 10° N
ATLAS CENTAUR R/B 3.5 10:57:59 10° N 11:01:02 22° NE 11:04:11 10° ESE
Cosmos 1844 Rocket 2.7 10:55:32 10° SW 11:01:02 56° WNW 11:06:37 10° N
Centaur AC-116 3.7 11:00:41 19° WSW 11:02:55 32° SSW 11:05:07 10° SE
Cosmos 2184 Rocket 3.9 10:57:52 10° SSW 11:04:07 73° W 11:10:29 10° N
H-2A R/B 3.0 11:00:21 10° NNE 11:04:14 72° E 11:08:03 10° S
Meteor 1-4 Rocket 2.9 11:03:45 30° NW 11:04:45 37° W 11:07:58 10° SSW
CRYOSAT 2 4.5 11:00:40 10° S 11:05:23 52° W 11:10:07 10° NNW
Cosmos 1328 Rocket 4.0 11:04:12 13° NNW 11:07:49 40° W 11:11:57 10° SSW
Cosmos 1680 Rocket 3.5 11:02:35 10° NNW 11:07:55 83° WSW 11:13:12 10° SSE
Lacrosse 5 3.7 11:09:02 13° NNW 11:09:02 13° NNW 11:11:18 10° N
OAO 3 Copernicus 4.3 11:06:59 17° WSW 11:10:53 88° NNW 11:16:00 10° ENE
Cosmos 372 Rocket 4.1 11:08:22 10° S 11:13:26 77° ESE 11:18:32 10° NNE
COSMOS 2455 2.8 11:07:38 10° SSW 11:13:40 87° WNW 11:19:43 10° NNE
EO 1 Delta rocket 4.3 11:09:11 10° SSE 11:14:37 72° E 11:19:18 10° N
Cosmos 1844 3.8 11:10:18 10° SW 11:15:40 52° WNW 11:21:06 10° N
OAO 2 Rocket 3.4 11:12:56 19° WNW 11:16:28 66° N 11:21:34 10° E
CENTAUR R/B 3.8 11:10:33 14° NW 11:17:05 38° WSW 11:24:59 10° S
Okean O Rocket 4.0 11:13:33 10° NE 11:17:22 28° E 11:21:11 10° SSE
Sich 1 4.0 11:16:58 10° S 11:21:15 52° E 11:25:34 10° NNE
BREEZE-M (TANK) 3.8 11:06:29 10° SW 11:21:39 84° NW 11:25:22 10° NE
Cosmos 1689 Rocket 2.1 11:19:56 10° S 11:22:43 50° W 11:25:31 10° NNW
Atlas Centaur 2 2.3 11:17:04 14° W 11:22:52 75° S 11:27:59 10° E
USA 234 3.2 11:18:05 10° NE 11:24:37 77° NW 11:31:08 10° SW
Cosmos 1743 Rocket 3.9 11:20:50 10° SSW 11:25:02 43° W 11:29:18 10° N
Aureole 2 Rocket 2.5 11:24:34 10° SW 11:26:49 28° WNW 11:29:04 10° N
CZ-4B DEB 4.3 11:22:05 10° NNE 11:27:34 81° ESE 11:33:03 10° S
Cosmos 2112 Rocket 4.1 11:22:28 10° NNW 11:27:45 63° WSW 11:32:59 10° S
SJ-7 4.4 11:25:37 10° N 11:29:40 66° WNW 11:33:46 10° SSW
ATLAS 2AS CENTAUR R/B 4.2 11:25:45 12° W 11:30:09 19° NW 11:35:28 10° N
COSMO-SKYMED 1 3.1 11:26:20 10° SSW 11:30:19 37° W 11:34:21 10° NNW
Meteor 2-6 Rocket 4.1 11:25:09 10° N 11:30:33 78° W 11:36:03 10° S
ATLAS 5 CENTAUR R/B 1.7 11:27:36 10° SSW 11:31:29 68° ESE 11:35:38 10° NE
H-2A R/B 2.3 11:28:45 10° NNE 11:32:34 83° ESE 11:36:24 10° S
PAYLOAD B 4.5 11:29:06 10° NNE 11:34:37 76° ESE 11:40:05 10° S
Milstar 3 Cent rocket 4.1 11:26:51 10° W 11:34:38 67° S 11:51:56 10° ESE
SEDSat Delta rocket 4.1 11:30:27 10° SW 11:34:57 42° SSE 11:39:01 10° E
H-II Stage 2 4.2 11:34:11 10° SW 11:35:20 14° S 11:36:42 10° SSE
CZ-2C R/B 4.4 11:32:10 10° SE 11:37:01 33° ENE 11:41:47 10° N
Gbstr 26 Del rocket 3.9 11:34:23 10° NNW 11:37:57 39° NE 11:41:54 10° ESE
APEX 4.4 11:34:24 10° SW 11:39:54 58° WNW 11:46:29 10° NNE
Lacrosse 4 Rocket 3.0 11:40:10 10° WNW 11:43:17 19° WSW 11:46:26 10° SSW
Envisat 3.0 11:38:42 10° N 11:43:45 66° WNW 11:48:45 10° SSW
Cosmos 1805 Rocket 3.7 11:39:49 10° SSW 11:44:09 56° W 11:48:32 10° N
CZ-4B R/B 4.4 11:42:20 10° NNW 11:45:25 19° WNW 11:48:27 10° WSW
Cosmos 1862 4.3 11:42:33 10° SW 11:45:56 25° WNW 11:49:21 10° NNW
MOS 1 Rocket 3.4 11:44:14 10° S 11:48:51 66° W 11:53:49 10° NNW
YAOGAN 6 2.8 11:46:04 10° N 11:49:24 44° WNW 11:52:42 10° SSW
Cosmos 1666 Rocket 3.8 11:47:02 10° S 11:51:19 73° E 11:55:38 10° N
Nadezhda 3 Rocket 4.0 11:46:58 10° NNW 11:53:11 66° W 11:59:18 10° S
